IGO5031 VOBL-VABB

Flight info

Callsign IGO5031
Flight time 1h 14m
Altitude 38000
Route VAGPU8A VAGPU Q8 AGELA MOLGO2A
Aircraft A320/M-SDE3FGHIRWY/LB1

Departure

Time 2026-05-08 13:57
Airport Kempegowda International Airport Bengaluru (VOBL)

Arrival

Time 2026-05-08 15:12
Airport Chhatrapati Shivaji Maharaj International Airport (VABB)
Time Latitude Longitude Altitude Speed Heading
2026-05-08 13:26 13.20166 77.71164 3014 ft 0 kts 180°
2026-05-08 13:46 13.20179 77.71164 3011 ft 4 kts 180°
2026-05-08 13:46 13.20203 77.71164 3019 ft 3 kts 180°
2026-05-08 13:47 13.20227 77.71159 3012 ft 4 kts 137°
2026-05-08 13:47 13.20239 77.71136 3016 ft 4 kts 96°
2026-05-08 13:47 13.20240 77.71114 3016 ft 0 kts 90°
2026-05-08 13:49 13.20240 77.71115 3016 ft 1 kts 90°
2026-05-08 13:50 13.20240 77.71129 3014 ft 3 kts 90°
2026-05-08 13:50 13.20240 77.71161 3014 ft 6 kts 90°
2026-05-08 13:50 13.20239 77.71209 3011 ft 8 kts 90°
2026-05-08 13:50 13.20254 77.71266 3011 ft 9 kts 39°
2026-05-08 13:51 13.20324 77.71276 3014 ft 11 kts
2026-05-08 13:51 13.20410 77.71277 3011 ft 11 kts
2026-05-08 13:51 13.20427 77.71277 3011 ft 0 kts
2026-05-08 13:51 13.20437 77.71277 3011 ft 2 kts
2026-05-08 13:52 13.20461 77.71277 3011 ft 4 kts
2026-05-08 13:52 13.20497 77.71272 3011 ft 7 kts 338°
2026-05-08 13:52 13.20526 77.71215 3011 ft 12 kts 271°
2026-05-08 13:52 13.20527 77.71116 3011 ft 15 kts 270°
2026-05-08 13:53 13.20528 77.70981 3011 ft 23 kts 270°
2026-05-08 13:53 13.20530 77.70795 3011 ft 29 kts 270°
2026-05-08 13:53 13.20531 77.70562 3011 ft 35 kts 271°
2026-05-08 13:53 13.20534 77.70308 3012 ft 36 kts 270°
2026-05-08 13:54 13.20537 77.70046 3012 ft 37 kts 270°
2026-05-08 13:54 13.20538 77.69773 3012 ft 39 kts 270°
2026-05-08 13:54 13.20541 77.69493 3011 ft 40 kts 270°
2026-05-08 13:54 13.20543 77.69203 3011 ft 41 kts 271°
2026-05-08 13:55 13.20545 77.68905 3011 ft 42 kts 270°
2026-05-08 13:55 13.20552 77.68652 3011 ft 8 kts 296°
2026-05-08 13:55 13.20598 77.68618 3012 ft 0 kts 350°
2026-05-08 13:56 13.20607 77.68617 3012 ft 3 kts 354°
2026-05-08 13:56 13.20645 77.68617 3012 ft 7 kts
2026-05-08 13:56 13.20697 77.68632 3011 ft 9 kts 37°
2026-05-08 13:56 13.20719 77.68716 3011 ft 17 kts 89°
2026-05-08 13:57 13.20718 77.69059 3011 ft 81 kts 90°
2026-05-08 13:57 13.20712 77.69832 3011 ft 133 kts 90°
2026-05-08 13:57 13.20702 77.70922 3118 ft 165 kts 90°
2026-05-08 13:57 13.20703 77.72055 3835 ft 160 kts 89°
2026-05-08 13:58 13.20728 77.73218 4366 ft 167 kts 83°
2026-05-08 13:58 13.21174 77.74385 4582 ft 189 kts 60°
2026-05-08 13:58 13.21957 77.75569 4740 ft 213 kts 56°
2026-05-08 13:58 13.22860 77.76881 4988 ft 238 kts 57°
2026-05-08 13:59 13.23832 77.78360 5431 ft 257 kts 58°
2026-05-08 13:59 13.24802 77.79927 6222 ft 263 kts 58°
2026-05-08 13:59 13.25763 77.81541 7026 ft 267 kts 57°
2026-05-08 13:59 13.27059 77.82908 7778 ft 274 kts 32°
2026-05-08 14:00 13.28882 77.83497 8521 ft 281 kts
2026-05-08 14:00 13.30852 77.83515 9322 ft 285 kts 357°
2026-05-08 14:00 13.32806 77.83101 10111 ft 291 kts 342°
2026-05-08 14:00 13.34708 77.82159 10329 ft 316 kts 332°
2026-05-08 14:01 13.36685 77.80995 10513 ft 338 kts 332°
2026-05-08 14:01 13.38751 77.79776 10978 ft 347 kts 332°
2026-05-08 14:01 13.40858 77.78535 11603 ft 351 kts 332°
2026-05-08 14:01 13.42987 77.77286 12252 ft 353 kts 332°
2026-05-08 14:02 13.45121 77.76007 12887 ft 357 kts 329°
2026-05-08 14:02 13.47207 77.74603 13528 ft 360 kts 327°
2026-05-08 14:02 13.49281 77.73141 14105 ft 363 kts 326°
2026-05-08 14:02 13.51357 77.71642 14641 ft 366 kts 326°
2026-05-08 14:03 13.53443 77.70125 15166 ft 370 kts 326°
2026-05-08 14:03 13.55555 77.68589 15679 ft 374 kts 326°
2026-05-08 14:03 13.57692 77.67042 16187 ft 377 kts 326°
2026-05-08 14:03 13.59856 77.65484 16673 ft 382 kts 326°
2026-05-08 14:04 13.62041 77.63919 17171 ft 385 kts 326°
2026-05-08 14:04 13.64259 77.62335 17675 ft 389 kts 325°
2026-05-08 14:04 13.66493 77.60739 18178 ft 393 kts 325°
2026-05-08 14:04 13.68747 77.59128 18618 ft 396 kts 325°
2026-05-08 14:05 13.71015 77.57504 19081 ft 398 kts 325°
2026-05-08 14:05 13.73296 77.55869 19527 ft 400 kts 325°
2026-05-08 14:05 13.75585 77.54230 19987 ft 403 kts 325°
2026-05-08 14:05 13.77894 77.52577 20452 ft 405 kts 325°
2026-05-08 14:06 13.80216 77.50913 20912 ft 408 kts 325°
2026-05-08 14:06 13.82551 77.49240 21363 ft 410 kts 325°
2026-05-08 14:06 13.84869 77.47578 21783 ft 413 kts 325°
2026-05-08 14:06 13.87230 77.45879 22199 ft 415 kts 325°
2026-05-08 14:07 13.89629 77.44144 22608 ft 418 kts 325°
2026-05-08 14:07 13.91987 77.42440 22990 ft 421 kts 325°
2026-05-08 14:07 13.94400 77.40702 23383 ft 424 kts 325°
2026-05-08 14:07 13.96820 77.38962 23703 ft 426 kts 325°
2026-05-08 14:08 13.99262 77.37209 24010 ft 429 kts 325°
2026-05-08 14:08 14.01717 77.35445 24320 ft 431 kts 325°
2026-05-08 14:08 14.04181 77.33675 24634 ft 434 kts 325°
2026-05-08 14:08 14.06666 77.31891 24935 ft 436 kts 325°
2026-05-08 14:09 14.09164 77.30097 25240 ft 439 kts 325°
2026-05-08 14:09 14.11675 77.28293 25540 ft 441 kts 325°
2026-05-08 14:09 14.14199 77.26477 25838 ft 443 kts 325°
2026-05-08 14:09 14.16736 77.24649 26130 ft 446 kts 325°
2026-05-08 14:10 14.19282 77.22818 26422 ft 448 kts 325°
2026-05-08 14:10 14.21849 77.20974 26706 ft 451 kts 325°
2026-05-08 14:10 14.24429 77.19120 26993 ft 453 kts 324°
2026-05-08 14:10 14.27014 77.17257 27283 ft 455 kts 324°
2026-05-08 14:11 14.29617 77.15379 27577 ft 458 kts 324°
2026-05-08 14:11 14.32231 77.13489 27856 ft 460 kts 324°
2026-05-08 14:11 14.34860 77.11588 28122 ft 462 kts 324°
2026-05-08 14:11 14.37503 77.09678 28419 ft 465 kts 324°
2026-05-08 14:12 14.40157 77.07764 28695 ft 468 kts 324°
2026-05-08 14:12 14.42834 77.05839 28970 ft 470 kts 324°
2026-05-08 14:12 14.45526 77.03901 29236 ft 473 kts 324°
2026-05-08 14:12 14.48230 77.01949 29508 ft 475 kts 324°
2026-05-08 14:13 14.50948 76.99984 29781 ft 478 kts 324°
2026-05-08 14:13 14.53671 76.98016 30100 ft 479 kts 324°
2026-05-08 14:13 14.56400 76.96044 30449 ft 478 kts 324°
2026-05-08 14:13 14.59124 76.94074 30814 ft 478 kts 324°
2026-05-08 14:14 14.61844 76.92105 31181 ft 477 kts 324°
2026-05-08 14:14 14.64560 76.90139 31562 ft 476 kts 324°
2026-05-08 14:14 14.67266 76.88182 31954 ft 475 kts 324°
2026-05-08 14:14 14.69972 76.86223 32351 ft 474 kts 323°
2026-05-08 14:15 14.72672 76.84267 32754 ft 473 kts 323°
2026-05-08 14:15 14.75366 76.82314 33166 ft 472 kts 323°
2026-05-08 14:15 14.78047 76.80368 33593 ft 471 kts 323°
2026-05-08 14:15 14.80727 76.78423 33996 ft 470 kts 323°
2026-05-08 14:16 14.83402 76.76484 34356 ft 469 kts 323°
2026-05-08 14:16 14.86073 76.74551 34718 ft 468 kts 323°
2026-05-08 14:16 14.88743 76.72621 35062 ft 467 kts 323°
2026-05-08 14:16 14.91397 76.70698 35399 ft 466 kts 323°
2026-05-08 14:17 14.94048 76.68774 35739 ft 465 kts 323°
2026-05-08 14:17 14.96661 76.66876 36077 ft 465 kts 323°
2026-05-08 14:17 14.99303 76.64953 36399 ft 464 kts 323°
2026-05-08 14:17 15.01940 76.63034 36738 ft 463 kts 323°
2026-05-08 14:18 15.04566 76.61123 37047 ft 462 kts 323°
2026-05-08 14:18 15.07194 76.59211 37380 ft 461 kts 324°
2026-05-08 14:18 15.09819 76.57305 37695 ft 460 kts 323°
2026-05-08 14:18 15.12442 76.55400 37824 ft 462 kts 324°
2026-05-08 14:19 15.15073 76.53487 37846 ft 462 kts 323°
2026-05-08 14:19 15.20328 76.49660 37842 ft 461 kts 323°
2026-05-08 14:20 15.25579 76.45846 37838 ft 461 kts 324°
2026-05-08 14:20 15.30830 76.42022 37838 ft 461 kts 323°
2026-05-08 14:21 15.36069 76.38195 37836 ft 461 kts 323°
2026-05-08 14:21 15.41316 76.34364 37843 ft 461 kts 323°
2026-05-08 14:22 15.46562 76.30538 37852 ft 461 kts 323°
2026-05-08 14:22 15.51805 76.26713 37853 ft 461 kts 323°
2026-05-08 14:23 15.57043 76.22880 37858 ft 461 kts 323°
2026-05-08 14:23 15.62282 76.19043 37866 ft 461 kts 323°
2026-05-08 14:24 15.66631 76.15852 37868 ft 461 kts 323°
2026-05-08 14:24 15.71870 76.12010 37870 ft 461 kts 323°
2026-05-08 14:25 15.77114 76.08172 37876 ft 461 kts 323°
2026-05-08 14:25 15.82358 76.04329 37881 ft 461 kts 323°
2026-05-08 14:26 15.87591 76.00483 37881 ft 461 kts 323°
2026-05-08 14:26 15.92827 75.96640 37882 ft 461 kts 323°
2026-05-08 14:27 15.98067 75.92794 37882 ft 461 kts 323°
2026-05-08 14:27 16.03301 75.88944 37882 ft 461 kts 323°
2026-05-08 14:28 16.08527 75.85096 37882 ft 461 kts 323°
2026-05-08 14:28 16.13759 75.81244 37885 ft 460 kts 323°
2026-05-08 14:29 16.18987 75.77394 37888 ft 460 kts 323°
2026-05-08 14:29 16.24206 75.73547 37894 ft 460 kts 323°
2026-05-08 14:30 16.29418 75.69701 37899 ft 459 kts 323°
2026-05-08 14:30 16.34595 75.65868 37896 ft 459 kts 323°
2026-05-08 14:31 16.39806 75.62022 37903 ft 458 kts 323°
2026-05-08 14:31 16.45005 75.58188 37903 ft 458 kts 323°
2026-05-08 14:32 16.52788 75.52433 37905 ft 456 kts 323°
2026-05-08 14:32 16.57955 75.48599 37908 ft 456 kts 323°
2026-05-08 14:33 16.62556 75.44123 37909 ft 452 kts 307°
2026-05-08 14:33 16.66437 75.38978 37906 ft 451 kts 307°
2026-05-08 14:34 16.70329 75.33836 37910 ft 451 kts 307°
2026-05-08 14:34 16.74226 75.28697 37905 ft 451 kts 307°
2026-05-08 14:35 16.78077 75.23603 37907 ft 450 kts 307°
2026-05-08 14:35 16.81947 75.18467 37906 ft 450 kts 307°
2026-05-08 14:36 16.85816 75.13348 37909 ft 449 kts 307°
2026-05-08 14:36 16.89685 75.08228 37908 ft 449 kts 307°
2026-05-08 14:37 16.93541 75.03114 37911 ft 448 kts 307°
2026-05-08 14:37 16.97392 74.97995 37905 ft 448 kts 307°
2026-05-08 14:38 17.01234 74.92884 37908 ft 447 kts 307°
2026-05-08 14:38 17.05071 74.87775 37906 ft 447 kts 307°
2026-05-08 14:39 17.08909 74.82663 37901 ft 447 kts 307°
2026-05-08 14:39 17.12740 74.77561 37902 ft 446 kts 307°
2026-05-08 14:40 17.16579 74.72461 37898 ft 446 kts 307°
2026-05-08 14:40 17.20400 74.67364 37438 ft 444 kts 307°
2026-05-08 14:41 17.22303 74.64821 36818 ft 445 kts 307°
2026-05-08 14:41 17.24212 74.62267 36173 ft 446 kts 307°
2026-05-08 14:41 17.26224 74.59785 35537 ft 449 kts 314°
2026-05-08 14:41 17.28462 74.57509 34890 ft 451 kts 315°
2026-05-08 14:42 17.30721 74.55221 34222 ft 453 kts 315°
2026-05-08 14:42 17.32990 74.52924 33632 ft 455 kts 315°
2026-05-08 14:42 17.35266 74.50618 33055 ft 456 kts 315°
2026-05-08 14:42 17.37556 74.48297 32483 ft 457 kts 315°
2026-05-08 14:43 17.39814 74.46007 31935 ft 458 kts 316°
2026-05-08 14:43 17.42130 74.43654 31381 ft 459 kts 316°
2026-05-08 14:43 17.44423 74.41319 30841 ft 460 kts 316°
2026-05-08 14:43 17.46720 74.38984 30321 ft 461 kts 316°
2026-05-08 14:44 17.49023 74.36644 29980 ft 461 kts 316°
2026-05-08 14:44 17.51298 74.34332 29844 ft 461 kts 316°
2026-05-08 14:44 17.55942 74.29613 29887 ft 462 kts 316°
2026-05-08 14:45 17.60520 74.24945 29888 ft 462 kts 316°
2026-05-08 14:45 17.65127 74.20245 29894 ft 462 kts 317°
2026-05-08 14:46 17.69741 74.15545 29893 ft 462 kts 317°
2026-05-08 14:46 17.74348 74.10836 29896 ft 462 kts 316°
2026-05-08 14:47 17.78945 74.06133 29498 ft 457 kts 316°
2026-05-08 14:47 17.81212 74.03813 28823 ft 453 kts 316°
2026-05-08 14:47 17.83450 74.01520 28185 ft 448 kts 316°
2026-05-08 14:48 17.85670 73.99250 27571 ft 443 kts 316°
2026-05-08 14:48 17.87867 73.97006 26975 ft 438 kts 316°
2026-05-08 14:48 17.90038 73.94783 26390 ft 433 kts 316°
2026-05-08 14:48 17.92182 73.92590 25821 ft 429 kts 316°
2026-05-08 14:49 17.94308 73.90414 25253 ft 424 kts 316°
2026-05-08 14:49 17.96413 73.88259 24701 ft 420 kts 316°
2026-05-08 14:49 17.98488 73.86127 24154 ft 416 kts 316°
2026-05-08 14:49 18.00553 73.84006 23609 ft 412 kts 315°
2026-05-08 14:50 18.02592 73.81913 22991 ft 409 kts 316°
2026-05-08 14:50 18.04624 73.79828 22362 ft 406 kts 315°
2026-05-08 14:50 18.06633 73.77763 21759 ft 403 kts 315°
2026-05-08 14:50 18.08636 73.75705 21164 ft 401 kts 316°
2026-05-08 14:51 18.10630 73.73657 20600 ft 400 kts 316°
2026-05-08 14:51 18.12613 73.71619 20048 ft 397 kts 316°
2026-05-08 14:51 18.14586 73.69593 19494 ft 395 kts 316°
2026-05-08 14:51 18.16551 73.67577 18954 ft 393 kts 316°
2026-05-08 14:52 18.18480 73.65595 18397 ft 392 kts 316°
2026-05-08 14:52 18.22369 73.61592 17144 ft 390 kts 316°
2026-05-08 14:52 18.24294 73.59607 16564 ft 387 kts 316°
2026-05-08 14:53 18.26209 73.57632 15988 ft 384 kts 316°
2026-05-08 14:53 18.28111 73.55672 15420 ft 381 kts 316°
2026-05-08 14:53 18.29997 73.53725 14861 ft 378 kts 316°
2026-05-08 14:53 18.31869 73.51791 14349 ft 375 kts 316°
2026-05-08 14:54 18.33729 73.49873 13823 ft 373 kts 317°
2026-05-08 14:54 18.35576 73.47969 13259 ft 370 kts 316°
2026-05-08 14:54 18.37410 73.46077 12692 ft 367 kts 317°
2026-05-08 14:54 18.39229 73.44200 12136 ft 364 kts 317°
2026-05-08 14:55 18.41033 73.42337 11605 ft 362 kts 317°
2026-05-08 14:55 18.42821 73.40490 11052 ft 359 kts 317°
2026-05-08 14:55 18.44599 73.38652 10476 ft 357 kts 317°
2026-05-08 14:55 18.46365 73.36824 9930 ft 355 kts 317°
2026-05-08 14:56 18.48100 73.35027 9683 ft 343 kts 317°
2026-05-08 14:56 18.49769 73.33297 9553 ft 330 kts 317°
2026-05-08 14:56 18.51380 73.31631 9424 ft 318 kts 317°
2026-05-08 14:56 18.52930 73.30029 9305 ft 307 kts 317°
2026-05-08 14:57 18.54436 73.28473 9150 ft 298 kts 317°
2026-05-08 14:57 18.55895 73.26962 9025 ft 289 kts 317°
2026-05-08 14:57 18.57306 73.25500 8898 ft 281 kts 317°
2026-05-08 14:57 18.58677 73.24077 8860 ft 274 kts 317°
2026-05-08 14:58 18.60034 73.22668 8863 ft 274 kts 317°
2026-05-08 14:58 18.61391 73.21261 8863 ft 274 kts 317°
2026-05-08 14:58 18.62749 73.19855 8855 ft 273 kts 317°
2026-05-08 14:58 18.64107 73.18449 8858 ft 274 kts 317°
2026-05-08 14:59 18.65525 73.17125 8854 ft 272 kts 328°
2026-05-08 14:59 18.69001 73.15811 8727 ft 265 kts 358°
2026-05-08 14:59 18.70837 73.15758 8434 ft 263 kts
2026-05-08 15:00 18.72660 73.15717 8169 ft 262 kts
2026-05-08 15:00 18.74477 73.15671 7894 ft 260 kts
2026-05-08 15:00 18.76274 73.15623 7723 ft 254 kts 360°
2026-05-08 15:00 18.78014 73.15574 7598 ft 244 kts 360°
2026-05-08 15:01 18.79678 73.15527 7308 ft 237 kts 360°
2026-05-08 15:01 18.81313 73.15487 7084 ft 234 kts 360°
2026-05-08 15:01 18.82940 73.15446 6788 ft 234 kts 359°
2026-05-08 15:01 18.84559 73.15404 6560 ft 232 kts 359°
2026-05-08 15:02 18.86167 73.15357 6305 ft 230 kts 359°
2026-05-08 15:02 18.87748 73.15522 6020 ft 229 kts 12°
2026-05-08 15:02 18.89271 73.15915 5862 ft 221 kts 14°
2026-05-08 15:02 18.90707 73.16315 5743 ft 212 kts 15°
2026-05-08 15:03 18.92122 73.16716 5606 ft 204 kts 15°
2026-05-08 15:03 18.93469 73.17103 5409 ft 199 kts 15°
2026-05-08 15:03 18.94802 73.17488 5176 ft 198 kts 15°
2026-05-08 15:03 18.96146 73.17731 4929 ft 196 kts 353°
2026-05-08 15:04 18.97414 73.17264 4779 ft 191 kts 334°
2026-05-08 15:04 18.98532 73.16609 4673 ft 181 kts 329°
2026-05-08 15:04 18.99467 73.15781 4541 ft 173 kts 317°
2026-05-08 15:04 19.00290 73.14872 4302 ft 170 kts 315°
2026-05-08 15:05 19.01091 73.13961 4042 ft 168 kts 315°
2026-05-08 15:05 19.01882 73.13056 3789 ft 165 kts 315°
2026-05-08 15:05 19.02650 73.12161 3463 ft 164 kts 315°
2026-05-08 15:05 19.03407 73.11265 3149 ft 163 kts 315°
2026-05-08 15:06 19.04154 73.10378 2991 ft 161 kts 315°
2026-05-08 15:06 19.04903 73.09489 2979 ft 162 kts 315°
2026-05-08 15:06 19.05717 73.08678 2970 ft 160 kts 323°
2026-05-08 15:06 19.06577 73.07930 2971 ft 160 kts 324°
2026-05-08 15:07 19.07149 73.07440 2969 ft 160 kts 324°
2026-05-08 15:07 19.08304 73.06454 2969 ft 159 kts 324°
2026-05-08 15:07 19.08877 73.05944 2967 ft 160 kts 320°
2026-05-08 15:07 19.09384 73.04908 2947 ft 170 kts 277°
2026-05-08 15:08 19.09148 73.03651 2796 ft 174 kts 262°
2026-05-08 15:08 19.09073 73.02445 2637 ft 158 kts 275°
2026-05-08 15:08 19.09061 73.01310 2437 ft 152 kts 275°
2026-05-08 15:08 19.09049 73.00209 2249 ft 148 kts 274°
2026-05-08 15:09 19.09036 72.99122 2062 ft 147 kts 274°
2026-05-08 15:09 19.09022 72.98043 1879 ft 147 kts 274°
2026-05-08 15:09 19.09008 72.96963 1695 ft 146 kts 273°
2026-05-08 15:09 19.08994 72.95894 1507 ft 145 kts 273°
2026-05-08 15:10 19.08980 72.94832 1314 ft 144 kts 273°
2026-05-08 15:10 19.08966 72.93773 1134 ft 144 kts 272°
2026-05-08 15:10 19.08952 72.92718 962 ft 144 kts 272°
2026-05-08 15:10 19.08938 72.91672 792 ft 140 kts 271°
2026-05-08 15:11 19.08924 72.90640 610 ft 140 kts 270°
2026-05-08 15:11 19.08910 72.89612 432 ft 140 kts 271°
2026-05-08 15:11 19.08899 72.88578 299 ft 140 kts 271°
2026-05-08 15:11 19.08874 72.87535 123 ft 143 kts 273°
2026-05-08 15:12 19.08871 72.86568 49 ft 110 kts 266°
2026-05-08 15:12 19.08865 72.85946 48 ft 65 kts 271°
2026-05-08 15:12 19.08878 72.85556 49 ft 49 kts 273°
2026-05-08 15:12 19.08915 72.85299 49 ft 33 kts 295°
2026-05-08 15:13 19.08989 72.85238 50 ft 12 kts 11°
2026-05-08 15:13 19.09021 72.85317 50 ft 14 kts 88°
2026-05-08 15:13 19.09024 72.85430 49 ft 17 kts 89°
2026-05-08 15:13 19.09025 72.85566 49 ft 20 kts 89°
2026-05-08 15:14 19.09028 72.85687 49 ft 8 kts 86°
2026-05-08 15:14 19.09068 72.85741 49 ft 11 kts 37°
2026-05-08 15:14 19.09114 72.85772 49 ft 0 kts 29°
2026-05-08 15:15 19.09116 72.85773 49 ft 1 kts 29°
2026-05-08 15:15 19.09134 72.85782 49 ft 3 kts 19°
2026-05-08 15:16 19.09154 72.85777 48 ft 4 kts 335°
2026-05-08 15:16 19.09174 72.85769 49 ft 3 kts 338°
2026-05-08 15:16 19.09186 72.85764 49 ft 2 kts 336°
2026-05-08 15:16 19.09189 72.85762 49 ft 0 kts 336°